Неляты

Россия / Забайкальский край     56°29′23″N   115°42′09″E
темп.,
°C
ветер,
м/с
пор.,
м/с
влажн.,
%
обл.,
%
осадки,
мм/ч
давл.,
гПа
погр.,
м
8 мая, сб
сб800:00+2ссз237998 0.0 101272
03:00+1ссз2279100 0.0 101352
06:00+2сз1176100 0.0 101244
09:00+6зсз1358100 0.0 1011827
12:00+8с3341100 0.3 10101784
15:00+9с4336100 0.3 10091911
18:00+8с3338100 0.0 10091434
21:00+5с225798 0.0 101032
9 мая, вс
вс900:00+2ссв226894 0.0 101216
03:00+1ссв116831 0.0 101110
06:000ссв11685 0.0 101211
09:00+6юз11495 0.0 1011595
12:00+10ю11355 0.0 10091656
15:00+12всв112826 0.1 10082237
18:00+11св433363 0.0 10071934
21:00+6ссв23499 0.0 101054
10 мая, пн
пн1000:00+3ссв225811 0.0 101113
03:00+2св115892 0.0 101210
06:00+2ссв115885 0.0 101211
09:00+7ююз114587 0.0 1011569
12:00+11ююв113498 0.0 10101600
15:00+13ссв2228100 0.0 10082331
18:00+12ссв3229100 0.0 10081433
21:00+8ссв234597 0.0 101046
11 мая, вт
вт1100:00+5ссв225540 0.0 101116
03:00+3св116075 0.0 101210
06:00+3с11645 0.0 101212
09:00+8юз11475 0.0 1010721
12:00+13ссз123255 0.0 10082109
15:00+13ссв432881 0.0 10062438
18:00+13ссв43309 0.0 10062072
21:00+8ссв224614 0.0 100715
12 мая, ср
ср1200:00+5с22705 0.0 100832
03:00+3с228016 0.0 100819
06:00+3ссв117684 0.0 100828
09:00+7зсз125698 0.0 10071109
12:00+8сз3450100 0.5 10061643
15:00+9ссз453894 0.8 10052014
18:00+9ссз453696 0.0 10061759
21:00+5ссз355222 0.0 1008108